GW2297 Weather Reports


time (UTC)temp
C
wind
direction
speed
KPH
gust
KPH
rain 1hr
cm
rain 24hr
cm
rain mn
cm
humidity
%
barometer
mb
20260510153050 22 0 3.2 9.7 0.00 0.89 0.03 85 1017.6
20260510151550 21 64 3.2 8.0 0.00 0.89 0.03 90 1017.6
20260510150100 21 0 1.6 6.4 0.00 0.89 0.03 90 1017.8
20260510144605 21 0 1.6 6.4 0.00 1.19 0.03 89 1018.1
20260510143050 20 22 1.6 6.4 0.00 1.19 0.03 92 1018.0
20260510141545 20 0 1.6 6.4 0.00 1.19 0.03 93 1018.2
20260510140046 20 118 1.6 4.8 0.03 1.19 0.03 97 1017.9
20260510134548 20 124 0.0 4.8 0.03 1.68 0.03 99 1017.6
20260510133051 19 0 1.6 6.4 0.03 1.68 0.03 99 1017.5
20260510131550 18 0 1.6 6.4 0.03 1.68 0.03 99 1017.3
20260510130050 18 72 0.0 4.8 0.00 1.65 0.00 99 1017.2
20260510124543 18 105 1.6 4.8 0.00 1.96 0.00 99 1017.0
20260510123056 17 0 0.0 4.8 0.00 1.96 0.00 99 1016.9
20260510121548 17 0 0.0 3.2 0.00 1.96 0.00 99 1016.7
20260510120040 17 147 1.6 4.8 0.00 1.96 0.00 99 1016.4
20260510114605 17 0 0.0 3.2 0.00 1.96 0.00 99 1016.1
20260510113054 17 124 0.0 4.8 0.00 1.96 0.00 99 1015.8
20260510111543 16 70 1.6 6.4 0.00 1.96 0.00 98 1015.4
20260510110045 16 82 1.6 4.8 0.00 1.96 0.00 98 1015.2
20260510104556 16 0 0.0 1.6 0.00 1.96 0.00 98 1014.8
20260510103039 16 67 1.6 3.2 0.00 1.96 0.00 98 1014.6
20260510101545 16 0 0.0 3.2 0.00 1.96 0.00 98 1014.6
20260510100057 16 0 0.0 1.6 0.00 1.96 0.00 98 1014.6
20260510094551 16 0 0.0 1.6 0.00 1.96 0.00 98 1014.5
20260510093041 17 0 0.0 1.6 0.00 1.96 0.00 98 1014.3
20260510091549 17 0 0.0 1.6 0.00 1.96 0.00 98 1014.4
20260510090046 17 0 0.0 1.6 0.00 1.96 0.00 98 1014.1
20260510084542 17 0 0.0 3.2 0.00 1.98 0.00 98 1014.0
20260510083044 17 0 0.0 3.2 0.00 1.98 0.00 98 1013.9
20260510081542 17 14 1.6 6.4 0.00 1.98 0.00 98 1013.9
20260510080051 17 289 1.6 3.2 0.00 1.98 0.00 98 1013.8
20260510074604 17 0 0.0 0.0 0.00 2.03 0.00 98 1013.7
20260510073047 17 0 0.0 1.6 0.00 2.03 0.00 98 1013.9
20260510071540 17 0 0.0 4.8 0.00 2.03 0.00 98 1013.9
20260510070100 17 179 0.0 3.2 0.00 2.03 0.00 98 1013.9
20260510064546 17 0 0.0 3.2 0.00 2.03 0.00 98 1013.6
20260510063044 17 79 0.0 1.6 0.00 2.03 0.00 98 1013.4
20260510061546 17 0 0.0 3.2 0.00 2.03 0.00 98 1013.5
20260510060043 17 319 0.0 3.2 0.00 2.03 0.00 98 1013.6
20260510054546 17 0 0.0 1.6 0.00 2.03 0.00 98 1013.5
20260510053041 17 0 0.0 1.6 0.00 2.03 0.00 98 1013.5
20260510051544 18 0 0.0 1.6 0.00 2.03 0.00 98 1013.4
20260510050047 18 0 0.0 1.6 0.00 2.03 0.00 98 1013.7
20260510044542 18 71 0.0 3.2 0.00 2.03 2.03 98 1013.7
20260510043040 18 0 0.0 1.6 0.00 2.03 2.03 98 1013.8
20260510041550 18 0 0.0 3.2 0.00 2.03 2.03 98 1014.4
20260510040048 18 0 0.0 1.6 0.00 2.03 2.03 98 1014.5
20260510034545 18 0 1.6 8.0 0.00 2.03 2.03 98 1014.6
20260510033054 18 174 0.0 3.2 0.00 2.03 2.03 98 1014.8
20260510031543 18 340 1.6 4.8 0.00 2.03 2.03 98 1015.1
20260510030049 18 0 0.0 4.8 0.00 2.03 2.03 98 1014.7
20260510024546 18 0 0.0 3.2 0.00 2.03 2.03 98 1014.1
20260510023042 18 123 1.6 3.2 0.00 2.03 2.03 98 1013.9
20260510021541 18 0 0.0 3.2 0.03 2.03 2.03 98 1014.1
20260510020044 18 0 1.6 4.8 0.03 2.03 2.03 97 1014.2
20260510014549 18 86 1.6 4.8 0.03 2.06 2.03 97 1013.5
20260510013046 18 21 0.0 3.2 0.03 2.06 2.03 97 1013.9
20260510011542 18 0 0.0 1.6 0.00 2.03 2.01 97 1013.7
20260510010049 18 0 0.0 3.2 0.00 2.03 2.01 97 1013.6
20260510004541 18 0 0.0 1.6 0.00 2.06 2.01 97 1013.6
20260510003054 19 0 0.0 1.6 0.00 2.06 2.01 96 1014.0
20260510001547 19 127 0.0 3.2 0.00 2.06 2.01 96 1013.8
20260510000051 19 208 0.0 3.2 0.00 2.06 2.01 96 1013.3
20260509234549 19 0 0.0 1.6 0.00 2.11 2.01 96 1012.9
20260509233043 19 0 0.0 3.2 0.00 2.11 2.01 96 1013.1
20260509231542 19 271 3.2 6.4 0.00 2.11 2.01 96 1013.3
20260509230044 19 0 0.0 4.8 0.00 2.11 2.01 96 1012.5
20260509224550 19 187 1.6 6.4 0.00 2.21 2.01 96 1012.8
20260509223047 18 243 0.0 3.2 0.00 2.21 2.01 96 1013.2
20260509221541 18 0 1.6 9.7 0.00 2.21 2.01 97 1012.8
20260509220059 18 127 0.0 4.8 0.00 2.21 2.01 96 1012.0
20260509214550 18 0 0.0 3.2 0.00 2.72 2.01 97 1012.4
20260509213049 18 293 1.6 4.8 0.00 2.72 2.01 96 1012.5
20260509211553 18 345 1.6 6.4 0.00 2.72 2.01 96 1012.3
20260509210055 18 304 1.6 6.4 0.00 2.72 2.01 97 1012.6
20260509204558 18 0 1.6 6.4 0.00 3.23 2.01 97 1012.5
20260509203100 18 276 3.2 9.7 0.00 3.23 2.01 97 1012.4
20260509201543 18 280 3.2 6.4 0.00 3.23 2.01 98 1012.9
20260509200049 18 291 3.2 8.0 0.00 3.23 2.01 97 1012.0
20260509194545 18 286 0.0 4.8 0.00 3.43 2.01 98 1012.1
20260509193045 18 0 1.6 6.4 0.00 3.43 2.01 98 1012.0
20260509191553 18 0 0.0 8.0 0.00 3.43 2.01 98 1011.8
20260509190044 18 335 0.0 6.4 0.00 3.43 2.01 98 1012.3
20260509184546 18 223 3.2 11.3 0.03 3.45 2.01 98 1012.5
20260509183043 18 130 1.6 4.8 0.03 3.45 2.01 98 1012.8
20260509181543 18 257 4.8 11.3 0.05 3.45 2.01 98 1012.4
20260509180044 17 170 3.2 8.0 0.05 3.45 2.01 98 1012.0
20260509174553 17 263 3.2 12.9 0.13 5.79 1.98 98 1012.6
20260509173055 17 214 3.2 11.3 0.18 5.79 1.98 98 1012.2
20260509171553 17 295 3.2 12.9 0.23 5.77 1.96 98 1012.5
20260509170046 17 101 3.2 9.7 0.25 5.77 1.96 98 1010.9
20260509164549 17 80 1.6 14.5 0.20 6.17 1.85 98 1013.2
20260509163048 17 157 3.2 11.3 0.30 6.12 1.80 98 1013.6
20260509161547 17 133 3.2 11.3 0.43 6.05 1.73 98 1014.0
20260509160047 17 286 4.8 11.3 0.51 5.99 1.70 98 1013.1
20260509154559 17 352 4.8 11.3 0.58 5.94 1.65 98 1014.1